Location: Aranbee
(34.0885°N, 118.2342°W)
Time: 04:29:10
(UTC+00:00)

Courier 1B - Pass Details

Date: 04 December 2020
Orbit: 962 x 1209 km, 28.3° (Epoch: 17 January)

Event Time Altitude Azimuth Distance (km) Brightness Sun altitude
Rises 02:00:15 0° 213° (SSW) 3,633 11.3 -15.6°
Reaches altitude 10° 02:03:44 10° 195° (SSW) 2,680 10.2 -16.3°
Maximum altitude 02:07:59 18° 154° (SSE) 2,137 9.2 -17.2°
Enters shadow 02:10:58 14° 122° (ESE) 2,432 9.2 -17.8°
